Regional Weather Roundup
Issued by NWS

Home | Current Version | Previous Version | Graphics & Text | Print | Product List | Glossary On
Versions: 1 2 3 4 5 6 7 8 9 10 11 12 13 14 15 16 17 18 19 20 21 22 23 24 25 26 27 28 29 30 31 32 33 34 35 36 37 38 39 40 41 42 43 44 45 46 47 48 49 50
000
ASUS45 KABQ 230101
RWRNM
NEW MEXICO REGIONAL WEATHER ROUNDUP
NATIONAL WEATHER SERVICE ALBUQUERQUE NM
700 PM MDT THU JUN 22 2017

NOTE: "FAIR" MEANS FEW OR NO CLOUDS BELOW 12,000 FEET AGL WITH NO
       SIGNIFICANT WEATHER OR OBSTRUCTIONS TO VISION.

      THIS PRODUCT IS RELEASED AS TWO VERSIONS.  ONE VERSION NEAR
      THE TOP OF THE HOUR CONTAINING PRELIMINARY DATA FROM ALBUQUERQUE
      AND OTHER STATIONS.  A FINAL VERSION WITH ADDITIONAL DATA IS
      ISSUED ABOUT 10 MINUTES AFTER THE HOUR.

NMZ501-503-504-510>518-230200-
NORTHWEST PLATEAU/NORTHCENTRAL MOUNTAINS

CITY           SKY/WX    TMP DP  RH WIND       PRES   REMARKS
FARMINGTON     FAIR      95   8   4 W20G32    29.89F
LOS ALAMOS     FAIR      88  26  10 NW13G20   30.05S
SANTA FE       FAIR      95  25   8 NW22G28   29.94F
TAOS           FAIR      88  27  11 W18G29      N/A
ANGEL FIRE     FAIR      77  41  28 N9        30.17S

$$
NMZ402-403-502-505>509-230200-
WESTCENTRAL MOUNTAINS/SOUTHWEST MOUNTAINS

CITY           SKY/WX    TMP DP  RH WIND       PRES   REMARKS
GALLUP         FAIR      93  21   7 W16G26    30.02S
GRANTS         FAIR      93  20   7 W18G26    30.03S
SILVER CITY    FAIR      91  36  14 W12       29.95S

$$
NMZ407-409-411-412-230200-
SOUTHERN DESERTS

CITY           SKY/WX    TMP DP  RH WIND       PRES   REMARKS
DEMING         FAIR      96  38  13 VRB7      29.85S
LAS CRUCES     FAIR      99  33  10 W21       29.82S
HOLLOMAN AFB   FAIR     103  32   8 W10       29.76S HX  96
ALAMOGORDO     FAIR     102  32   8 N7        29.76S HX  96
T OR C         FAIR      99  33  10 SW12      29.84R

$$
NMZ519>523-230200-
CENTRAL VALLEYS/CENTRAL HIGHLANDS

CITY           SKY/WX    TMP DP  RH WIND       PRES   REMARKS
ALBUQUERQUE    FAIR      99  25   7 W16       29.87S
DOUBLE EAGLE   PTSUNNY   97  32  10 W14G25    29.93S
MORIARTY ARPT  FAIR      92  37  14 CALM      29.96F
CLINES CORNERS FAIR      90  30  11 NW13      30.03F
BELEN          FAIR      99  26   7 NW13      29.87S
SOCORRO        FAIR     101  30   8 NW16      29.84S

$$
NMZ524>526-539-540-230200-
SOUTHCENTRAL MOUNTAINS

CITY           SKY/WX    TMP DP  RH WIND       PRES   REMARKS
RUIDOSO        FAIR      88  32  13 W13       30.05F

$$
NMZ527>531-230200-
NORTHEAST HIGHLANDS/NORTHEAST PLAINS

CITY           SKY/WX    TMP DP  RH WIND       PRES   REMARKS
LAS VEGAS      FAIR      85  34  16 E12       30.01F
RATON          FAIR      90  33  13 N7        29.95S
CLAYTON        FAIR      86  43  22 N14       29.83F

$$
NMZ532>537-230200-
EASTCENTRAL PLAINS

CITY           SKY/WX    TMP DP  RH WIND       PRES   REMARKS
TUCUMCARI      FAIR      99  40  13 S9        29.70F
CANNON AFB     PTSUNNY   84  57  39 S17G28    29.78S THUNDER
CLOVIS AIRPORT TSTM      77  62  59 VRB7G29   29.80R

$$
NMZ028-029-538-230200-
SOUTHEAST PLAINS

CITY           SKY/WX    TMP DP  RH WIND       PRES   REMARKS
ROSWELL        FAIR     101  41  12 NE10      29.70F HX  96
ARTESIA        FAIR     100  45  15 NW13      29.71R HX  96
CARLSBAD       FAIR     103  47  15 S7        29.69R HX  99
HOBBS          FAIR      99  43  14 SE8       29.75S


$$



USA.gov is the U.S. government's official web portal to all federal, state and local government web resources and services.